{"data":{"norad_id":68591,"epoch":"2026-09-20T03:45:46.033920Z","epoch_age_seconds":96107,"freshness":"FRESH","line1":"1 68591U 26072U   26263.15678280  .00001882  00000+0  27581-3 0  9996","line2":"2 68591  51.8984 118.1902 0001078 106.1449 253.9632 14.79931372 25428","mean_motion":14.79931372,"eccentricity":0.0001078,"inclination_deg":51.8984,"raan_deg":118.1902,"arg_perigee_deg":106.1449,"mean_anomaly_deg":253.9632,"bstar":0.00027581,"rev_number":2542,"period_min":97.301809208488,"perigee_km":628.78534070886,"apogee_km":630.29619603572,"semimajor_km":7007.6777683723,"source":"CELESTRAK","updated_at":"2026-09-20T09:00:24.323138Z"}}